Simultaneous Nadir Overpasses (SNOs) Predictions

Prediction of SNOs between AQUA and NOAA-19 Satellite Orbit:

Table of predicted SNOs for the next 14.0 days since TLE Epoch: 12/7/2024
Index Date (AQUA) Time (AQUA) Lat,Lon (AQUA) SZA (AQUA ) Date (NOAA-19) Time (NOAA-19) Lat,Lon (NOAA-19) SZA (NOAA-19 ) Distance(km) Time Diff (sec)
1 12/07/2024 11:22:57 -75.60,-169.34 81.77 12/07/2024 11:22:44 -75.62,-169.43 81.75 3.47 13
2 12/07/2024 12:12:29 76.17, -3.43 98.79 12/07/2024 12:13:34 76.19, -0.21 98.86 85.63 65
3 12/09/2024 14:21:18 -75.63, 146.05 81.54 12/09/2024 14:21:16 -75.64, 146.04 81.53 1.37 2
4 12/11/2024 16:30:11 75.28, -65.15 98.30 12/11/2024 16:29:03 75.17, -67.32 98.17 62.58 68
5 12/11/2024 17:19:37 -75.63, 101.52 81.37 12/11/2024 17:19:48 -75.65, 101.48 81.34 2.58 11
6 12/13/2024 19:28:35 75.60,-110.59 98.75 12/13/2024 19:27:25 75.61,-110.49 98.76 3.35 70
7 12/13/2024 20:17:55 -75.65, 56.93 81.21 12/13/2024 20:18:20 -75.65, 56.89 81.21 1.30 25
8 12/15/2024 22:26:51 75.59,-155.09 98.85 12/15/2024 22:25:57 75.58,-155.18 98.84 2.82 54
9 12/15/2024 23:16:12 -75.69, 12.29 81.06 12/15/2024 23:16:51 -75.68, 12.41 81.07 3.73 39
10 12/18/2024 01:25:06 75.61, 160.35 98.94 12/18/2024 01:24:27 75.63, 160.39 98.95 2.23 39
11 12/18/2024 02:14:26 -75.66, -32.13 81.02 12/18/2024 02:15:23 -75.65, -32.25 81.02 3.43 57
12 12/20/2024 04:23:19 75.60, 115.88 98.96 12/20/2024 04:22:58 75.61, 115.77 98.98 3.52 21



Historial Predications of SNOs between AQUA and NOAA-19
